Time,TemperatureF,DewpointF,PressureIn,WindDirection,WindDirectionDegrees,WindSpeedMPH,WindSpeedGustMPH,Humidity,HourlyPrecipIn,Conditions,Clouds,dailyrainin,SoftwareType,DateUTC
2013-10-31 00:03:00,61.2,59.5,29.75,SE,135,2.0,-999.0,94,0.00,,,0.09,Wunderground v.1.15,2013-10-31 05:03:00,
2013-10-31 00:08:00,61.2,59.5,29.75,SW,225,1.0,-999.0,94,0.00,,,0.09,Wunderground v.1.15,2013-10-31 05:08:00,
2013-10-31 00:13:00,61.2,59.2,29.74,SE,135,3.0,-999.0,93,0.00,,,0.09,Wunderground v.1.15,2013-10-31 05:13:00,
2013-10-31 00:18:00,61.2,59.2,29.74,SE,135,1.0,-999.0,93,0.00,,,0.09,Wunderground v.1.15,2013-10-31 05:18:00,
2013-10-31 00:23:00,61.2,59.5,29.74,SE,135,2.0,-999.0,94,0.00,,,0.09,Wunderground v.1.15,2013-10-31 05:23:00,
2013-10-31 00:28:00,61.2,59.5,29.73,SSW,203,2.0,-999.0,94,0.00,,,0.09,Wunderground v.1.15,2013-10-31 05:28:00,
2013-10-31 00:33:00,61.2,59.5,29.73,South,180,2.0,-999.0,94,0.00,,,0.09,Wunderground v.1.15,2013-10-31 05:33:00,
2013-10-31 00:38:00,61.2,59.5,29.73,SE,135,1.0,-999.0,94,0.00,,,0.09,Wunderground v.1.15,2013-10-31 05:38:00,
2013-10-31 00:43:00,61.2,59.5,29.73,SE,135,2.0,-999.0,94,0.00,,,0.09,Wunderground v.1.15,2013-10-31 05:43:00,
2013-10-31 00:48:00,61.2,59.5,29.73,SE,135,1.0,-999.0,94,0.00,,,0.09,Wunderground v.1.15,2013-10-31 05:48:00,
2013-10-31 00:53:00,61.2,59.5,29.73,SE,135,1.0,-999.0,94,0.00,,,0.09,Wunderground v.1.15,2013-10-31 05:53:00,
2013-10-31 00:58:00,61.2,59.5,29.72,South,180,2.0,-999.0,94,0.00,,,0.09,Wunderground v.1.15,2013-10-31 05:58:00,
2013-10-31 01:03:00,61.2,59.5,29.72,ESE,113,1.0,-999.0,94,0.00,,,0.09,Wunderground v.1.15,2013-10-31 06:03:00,
2013-10-31 01:08:00,61.2,59.5,29.72,SE,135,1.0,-999.0,94,0.00,,,0.09,Wunderground v.1.15,2013-10-31 06:08:00,
2013-10-31 01:13:00,61.2,59.5,29.71,SSE,158,1.0,-999.0,94,0.00,,,0.09,Wunderground v.1.15,2013-10-31 06:13:00,
2013-10-31 01:18:00,61.2,59.5,29.71,South,180,1.0,-999.0,94,0.00,,,0.09,Wunderground v.1.15,2013-10-31 06:18:00,
2013-10-31 01:23:00,61.2,59.5,29.71,South,180,1.0,-999.0,94,0.00,,,0.09,Wunderground v.1.15,2013-10-31 06:23:00,
2013-10-31 01:28:00,61.3,59.6,29.72,South,180,1.0,-999.0,94,0.00,,,0.09,Wunderground v.1.15,2013-10-31 06:28:00,
2013-10-31 01:33:00,61.3,59.6,29.72,South,180,0.0,-999.0,94,0.00,,,0.09,Wunderground v.1.15,2013-10-31 06:33:00,
2013-10-31 01:38:00,61.3,59.6,29.72,South,180,1.0,-999.0,94,0.00,,,0.09,Wunderground v.1.15,2013-10-31 06:38:00,
2013-10-31 01:43:00,61.3,59.6,29.71,South,180,2.0,-999.0,94,0.00,,,0.09,Wunderground v.1.15,2013-10-31 06:43:00,
2013-10-31 01:48:00,61.3,59.6,29.71,SE,135,0.0,-999.0,94,0.00,,,0.09,Wunderground v.1.15,2013-10-31 06:48:00,
2013-10-31 01:53:00,61.3,59.6,29.71,SE,135,1.0,-999.0,94,0.00,,,0.09,Wunderground v.1.15,2013-10-31 06:53:00,
2013-10-31 01:58:00,61.4,59.7,29.69,SE,135,1.0,-999.0,94,0.00,,,0.09,Wunderground v.1.15,2013-10-31 06:58:00,
2013-10-31 02:03:00,61.5,59.8,29.69,SSE,158,1.0,-999.0,94,0.00,,,0.09,Wunderground v.1.15,2013-10-31 07:03:00,
2013-10-31 02:08:00,61.5,59.8,29.69,SSE,158,1.0,-999.0,94,0.00,,,0.09,Wunderground v.1.15,2013-10-31 07:08:00,
2013-10-31 02:13:00,61.5,59.8,29.68,SE,135,1.0,-999.0,94,0.00,,,0.09,Wunderground v.1.15,2013-10-31 07:13:00,
2013-10-31 02:18:00,61.5,59.8,29.68,SE,135,1.0,-999.0,94,0.00,,,0.09,Wunderground v.1.15,2013-10-31 07:18:00,
2013-10-31 02:23:00,61.5,59.8,29.68,SSW,203,1.0,-999.0,94,0.00,,,0.09,Wunderground v.1.15,2013-10-31 07:23:00,
2013-10-31 02:28:00,61.6,60.2,29.68,SE,135,1.0,-999.0,95,0.00,,,0.09,Wunderground v.1.15,2013-10-31 07:28:00,
2013-10-31 02:33:00,61.6,60.2,29.68,SSE,158,2.0,-999.0,95,0.00,,,0.09,Wunderground v.1.15,2013-10-31 07:33:00,
2013-10-31 02:38:00,61.6,60.2,29.68,SE,135,1.0,-999.0,95,0.00,,,0.09,Wunderground v.1.15,2013-10-31 07:38:00,
2013-10-31 02:43:00,61.6,60.2,29.67,South,180,0.0,-999.0,95,0.00,,,0.09,Wunderground v.1.15,2013-10-31 07:43:00,
2013-10-31 02:48:00,61.6,60.2,29.67,South,180,2.0,-999.0,95,0.00,,,0.09,Wunderground v.1.15,2013-10-31 07:48:00,
2013-10-31 02:53:00,61.6,60.2,29.67,SSE,158,1.0,-999.0,95,0.00,,,0.09,Wunderground v.1.15,2013-10-31 07:53:00,
2013-10-31 02:58:00,61.8,60.4,29.66,SE,135,2.0,-999.0,95,0.00,,,0.09,Wunderground v.1.15,2013-10-31 07:58:00,
2013-10-31 03:03:00,61.8,60.4,29.66,SSE,158,1.0,-999.0,95,0.00,,,0.09,Wunderground v.1.15,2013-10-31 08:03:00,
2013-10-31 03:08:00,61.8,60.4,29.66,SE,135,1.0,-999.0,95,0.00,,,0.09,Wunderground v.1.15,2013-10-31 08:08:00,
2013-10-31 03:13:00,61.8,60.4,29.65,SE,135,1.0,-999.0,95,0.00,,,0.09,Wunderground v.1.15,2013-10-31 08:13:00,
2013-10-31 03:18:00,61.8,60.4,29.65,SSE,158,1.0,-999.0,95,0.00,,,0.09,Wunderground v.1.15,2013-10-31 08:18:00,
2013-10-31 03:23:00,61.8,60.4,29.65,SSW,203,0.0,-999.0,95,0.00,,,0.09,Wunderground v.1.15,2013-10-31 08:23:00,
2013-10-31 03:28:00,61.8,60.4,29.65,South,180,0.0,-999.0,95,0.00,,,0.09,Wunderground v.1.15,2013-10-31 08:28:00,
2013-10-31 03:33:00,61.9,60.5,29.65,SSE,158,1.0,-999.0,95,0.00,,,0.09,Wunderground v.1.15,2013-10-31 08:33:00,
2013-10-31 03:38:00,62.0,60.6,29.65,SE,135,2.0,-999.0,95,0.00,,,0.09,Wunderground v.1.15,2013-10-31 08:38:00,
2013-10-31 03:43:00,62.0,60.6,29.65,SE,135,1.0,-999.0,95,0.00,,,0.09,Wunderground v.1.15,2013-10-31 08:43:00,
2013-10-31 03:48:00,62.0,60.6,29.65,SSE,158,2.0,-999.0,95,0.00,,,0.09,Wunderground v.1.15,2013-10-31 08:48:00,
2013-10-31 03:53:00,62.0,60.6,29.65,South,180,1.0,-999.0,95,0.00,,,0.09,Wunderground v.1.15,2013-10-31 08:53:00,
2013-10-31 03:58:00,62.0,60.6,29.63,SSE,158,2.0,-999.0,95,0.00,,,0.09,Wunderground v.1.15,2013-10-31 08:58:00,
2013-10-31 04:03:00,62.0,60.6,29.63,SE,135,2.0,-999.0,95,0.00,,,0.09,Wunderground v.1.15,2013-10-31 09:03:00,
2013-10-31 04:08:00,62.0,60.6,29.63,SSE,158,2.0,-999.0,95,0.00,,,0.09,Wunderground v.1.15,2013-10-31 09:08:00,
2013-10-31 04:13:00,62.0,60.6,29.62,SSE,158,2.0,-999.0,95,0.00,,,0.09,Wunderground v.1.15,2013-10-31 09:13:00,
2013-10-31 04:18:00,62.0,60.6,29.62,South,180,1.0,-999.0,95,0.00,,,0.09,Wunderground v.1.15,2013-10-31 09:18:00,
2013-10-31 04:23:00,62.0,60.6,29.62,SSE,158,2.0,-999.0,95,0.00,,,0.09,Wunderground v.1.15,2013-10-31 09:23:00,
2013-10-31 04:28:00,62.0,60.6,29.61,SE,135,2.0,-999.0,95,0.00,,,0.09,Wunderground v.1.15,2013-10-31 09:28:00,
2013-10-31 04:33:00,62.0,60.6,29.61,SSE,158,2.0,-999.0,95,0.00,,,0.09,Wunderground v.1.15,2013-10-31 09:33:00,
2013-10-31 04:38:00,62.0,60.6,29.61,SE,135,1.0,-999.0,95,0.00,,,0.09,Wunderground v.1.15,2013-10-31 09:38:00,
2013-10-31 04:43:00,62.0,60.6,29.60,SE,135,1.0,-999.0,95,0.00,,,0.09,Wunderground v.1.15,2013-10-31 09:43:00,
2013-10-31 04:48:00,62.0,60.6,29.60,SE,135,1.0,-999.0,95,0.00,,,0.09,Wunderground v.1.15,2013-10-31 09:48:00,
2013-10-31 04:53:00,62.0,60.6,29.60,South,180,1.0,-999.0,95,0.00,,,0.09,Wunderground v.1.15,2013-10-31 09:53:00,
2013-10-31 04:58:00,62.0,60.6,29.60,South,180,1.0,-999.0,95,0.00,,,0.09,Wunderground v.1.15,2013-10-31 09:58:00,
2013-10-31 05:03:00,62.0,60.6,29.60,SE,135,1.0,-999.0,95,0.00,,,0.09,Wunderground v.1.15,2013-10-31 10:03:00,
2013-10-31 05:08:00,62.0,60.6,29.60,SSE,158,1.0,-999.0,95,0.00,,,0.09,Wunderground v.1.15,2013-10-31 10:08:00,
2013-10-31 05:13:00,62.1,60.9,29.59,SE,135,2.0,-999.0,96,0.00,,,0.09,Wunderground v.1.15,2013-10-31 10:13:00,
2013-10-31 05:18:00,62.1,60.9,29.59,SSE,158,1.0,-999.0,96,0.00,,,0.09,Wunderground v.1.15,2013-10-31 10:18:00,
2013-10-31 05:23:00,62.1,60.7,29.59,South,180,2.0,-999.0,95,0.00,,,0.09,Wunderground v.1.15,2013-10-31 10:23:00,
2013-10-31 05:28:00,62.1,60.9,29.57,SE,135,0.0,-999.0,96,0.00,,,0.09,Wunderground v.1.15,2013-10-31 10:28:00,
2013-10-31 05:33:00,62.1,60.9,29.57,SE,135,1.0,-999.0,96,0.00,,,0.09,Wunderground v.1.15,2013-10-31 10:33:00,
2013-10-31 05:38:00,62.1,60.9,29.57,SE,135,1.0,-999.0,96,0.00,,,0.09,Wunderground v.1.15,2013-10-31 10:38:00,
2013-10-31 05:43:00,62.1,60.9,29.57,SE,135,2.0,-999.0,96,0.00,,,0.09,Wunderground v.1.15,2013-10-31 10:43:00,
2013-10-31 05:48:00,62.1,60.9,29.57,SSE,158,2.0,-999.0,96,0.00,,,0.09,Wunderground v.1.15,2013-10-31 10:48:00,
2013-10-31 05:53:00,62.1,60.9,29.57,SSW,203,2.0,-999.0,96,0.00,,,0.09,Wunderground v.1.15,2013-10-31 10:53:00,
2013-10-31 05:58:00,62.1,60.9,29.57,SSE,158,1.0,-999.0,96,0.00,,,0.09,Wunderground v.1.15,2013-10-31 10:58:00,
2013-10-31 06:03:00,62.1,60.9,29.57,SSE,158,2.0,-999.0,96,0.00,,,0.09,Wunderground v.1.15,2013-10-31 11:03:00,
2013-10-31 06:08:00,62.1,60.9,29.57,SE,135,1.0,-999.0,96,0.00,,,0.09,Wunderground v.1.15,2013-10-31 11:08:00,
2013-10-31 06:13:00,62.1,60.9,29.56,South,180,1.0,-999.0,96,0.00,,,0.09,Wunderground v.1.15,2013-10-31 11:13:00,
2013-10-31 06:18:00,62.1,60.9,29.56,SE,135,1.0,-999.0,96,0.00,,,0.09,Wunderground v.1.15,2013-10-31 11:18:00,
2013-10-31 06:23:00,62.1,60.9,29.56,SSW,203,0.0,-999.0,96,0.00,,,0.09,Wunderground v.1.15,2013-10-31 11:23:00,
2013-10-31 06:28:00,62.1,60.9,29.56,SSW,203,0.0,-999.0,96,0.00,,,0.09,Wunderground v.1.15,2013-10-31 11:28:00,
2013-10-31 06:33:00,62.1,60.9,29.56,SSE,158,1.0,-999.0,96,0.00,,,0.09,Wunderground v.1.15,2013-10-31 11:33:00,
2013-10-31 06:38:00,62.2,61.0,29.56,SW,225,0.0,-999.0,96,0.00,,,0.09,Wunderground v.1.15,2013-10-31 11:38:00,
2013-10-31 06:43:00,62.3,61.1,29.56,SSE,158,1.0,-999.0,96,0.01,,,0.09,Wunderground v.1.15,2013-10-31 11:43:00,
2013-10-31 06:48:00,62.3,61.1,29.56,South,180,2.0,-999.0,96,0.01,,,0.09,Wunderground v.1.15,2013-10-31 11:48:00,
2013-10-31 06:53:00,62.3,61.1,29.56,SSE,158,1.0,-999.0,96,0.01,,,0.09,Wunderground v.1.15,2013-10-31 11:53:00,
2013-10-31 06:58:00,62.3,61.1,29.56,South,180,0.0,-999.0,96,0.02,,,0.09,Wunderground v.1.15,2013-10-31 11:58:00,
2013-10-31 07:03:00,62.3,61.1,29.56,South,180,1.0,-999.0,96,0.02,,,0.09,Wunderground v.1.15,2013-10-31 12:03:00,
2013-10-31 07:08:00,62.4,61.2,29.56,SSE,158,1.0,-999.0,96,0.02,,,0.09,Wunderground v.1.15,2013-10-31 12:08:00,
2013-10-31 07:13:00,62.4,61.2,29.55,South,180,0.0,-999.0,96,0.02,,,0.09,Wunderground v.1.15,2013-10-31 12:13:00,
2013-10-31 07:18:00,62.4,61.2,29.55,SSE,158,1.0,-999.0,96,0.02,,,0.09,Wunderground v.1.15,2013-10-31 12:18:00,
2013-10-31 07:23:00,62.4,61.2,29.55,SSE,158,1.0,-999.0,96,0.02,,,0.09,Wunderground v.1.15,2013-10-31 12:23:00,
2013-10-31 07:28:00,62.4,61.2,29.55,SSE,158,2.0,-999.0,96,0.02,,,0.09,Wunderground v.1.15,2013-10-31 12:28:00,
2013-10-31 07:33:00,62.6,61.4,29.55,South,180,2.0,-999.0,96,0.02,,,0.09,Wunderground v.1.15,2013-10-31 12:33:00,
2013-10-31 07:38:00,62.6,61.4,29.55,South,180,2.0,-999.0,96,0.02,,,0.09,Wunderground v.1.15,2013-10-31 12:38:00,
2013-10-31 07:43:00,62.6,61.4,29.55,SE,135,2.0,-999.0,96,0.01,,,0.09,Wunderground v.1.15,2013-10-31 12:43:00,
2013-10-31 07:48:00,62.6,61.4,29.55,SSW,203,1.0,-999.0,96,0.01,,,0.09,Wunderground v.1.15,2013-10-31 12:48:00,
2013-10-31 07:53:00,62.7,61.5,29.55,SSE,158,2.0,-999.0,96,0.01,,,0.09,Wunderground v.1.15,2013-10-31 12:53:00,
2013-10-31 07:58:00,62.7,61.5,29.56,SSE,158,1.0,-999.0,96,0.01,,,0.09,Wunderground v.1.15,2013-10-31 12:58:00,
2013-10-31 08:03:00,62.7,61.5,29.56,SSW,203,1.0,-999.0,96,0.01,,,0.09,Wunderground v.1.15,2013-10-31 13:03:00,
2013-10-31 08:08:00,62.7,61.5,29.56,South,180,1.0,-999.0,96,0.01,,,0.09,Wunderground v.1.15,2013-10-31 13:08:00,
2013-10-31 08:13:00,62.7,61.5,29.55,SSW,203,1.0,-999.0,96,0.01,,,0.09,Wunderground v.1.15,2013-10-31 13:13:00,
2013-10-31 08:18:00,62.6,61.4,29.55,SSW,203,2.0,-999.0,96,0.02,,,0.09,Wunderground v.1.15,2013-10-31 13:18:00,
2013-10-31 08:23:00,62.6,61.4,29.55,South,180,1.0,-999.0,96,0.02,,,0.09,Wunderground v.1.15,2013-10-31 13:23:00,
2013-10-31 08:28:00,62.6,61.4,29.55,SSE,158,1.0,-999.0,96,0.02,,,0.09,Wunderground v.1.15,2013-10-31 13:28:00,
2013-10-31 08:33:00,62.6,61.4,29.55,SSW,203,1.0,-999.0,96,0.02,,,0.09,Wunderground v.1.15,2013-10-31 13:33:00,
2013-10-31 08:38:00,62.6,61.4,29.55,South,180,0.0,-999.0,96,0.02,,,0.09,Wunderground v.1.15,2013-10-31 13:38:00,
2013-10-31 08:43:00,62.6,61.4,29.55,South,180,0.0,-999.0,96,0.02,,,0.09,Wunderground v.1.15,2013-10-31 13:43:00,
2013-10-31 08:48:00,62.6,61.4,29.55,SSE,158,1.0,-999.0,96,0.02,,,0.09,Wunderground v.1.15,2013-10-31 13:48:00,
2013-10-31 08:53:00,62.6,61.4,29.55,SSW,203,1.0,-999.0,96,0.02,,,0.09,Wunderground v.1.15,2013-10-31 13:53:00,
2013-10-31 08:58:00,62.6,61.4,29.55,South,180,1.0,-999.0,96,0.01,,,0.09,Wunderground v.1.15,2013-10-31 13:58:00,
2013-10-31 09:03:00,62.6,61.4,29.55,South,180,0.0,-999.0,96,0.01,,,0.09,Wunderground v.1.15,2013-10-31 14:03:00,
2013-10-31 09:08:00,62.6,61.4,29.55,South,180,0.0,-999.0,96,0.01,,,0.09,Wunderground v.1.15,2013-10-31 14:08:00,
2013-10-31 09:13:00,62.7,61.5,29.54,N/A,-737280,0.0,-999.0,96,0.01,,,0.09,Wunderground v.1.15,2013-10-31 14:13:00,
2013-10-31 09:18:00,62.8,61.6,29.54,N/A,-737280,0.0,-999.0,96,0.00,,,0.09,Wunderground v.1.15,2013-10-31 14:18:00,
2013-10-31 09:23:00,63.0,61.8,29.54,South,180,0.0,-999.0,96,0.00,,,0.09,Wunderground v.1.15,2013-10-31 14:23:00,
2013-10-31 09:28:00,63.2,62.0,29.53,South,180,1.0,-999.0,96,0.00,,,0.09,Wunderground v.1.15,2013-10-31 14:28:00,
2013-10-31 09:33:00,63.3,62.1,29.53,South,180,0.0,-999.0,96,0.00,,,0.09,Wunderground v.1.15,2013-10-31 14:33:00,
2013-10-31 09:38:00,63.3,62.1,29.53,SSE,158,2.0,-999.0,96,0.00,,,0.09,Wunderground v.1.15,2013-10-31 14:38:00,
2013-10-31 09:43:00,63.4,62.2,29.52,SSE,158,0.0,-999.0,96,0.00,,,0.09,Wunderground v.1.15,2013-10-31 14:43:00,
2013-10-31 09:48:00,63.5,62.3,29.52,SSW,203,0.0,-999.0,96,0.00,,,0.09,Wunderground v.1.15,2013-10-31 14:48:00,
2013-10-31 09:53:00,63.6,62.4,29.52,SW,225,0.0,-999.0,96,0.00,,,0.09,Wunderground v.1.15,2013-10-31 14:53:00,
2013-10-31 09:58:00,63.5,62.3,29.52,ESE,113,1.0,-999.0,96,0.00,,,0.09,Wunderground v.1.15,2013-10-31 14:58:00,
2013-10-31 10:03:00,63.7,62.2,29.52,SSW,203,1.0,-999.0,95,0.00,,,0.09,Wunderground v.1.15,2013-10-31 15:03:00,
2013-10-31 10:08:00,63.7,62.2,29.52,SSE,158,2.0,-999.0,95,0.00,,,0.09,Wunderground v.1.15,2013-10-31 15:08:00,
2013-10-31 10:13:00,64.0,62.5,29.51,South,180,2.0,-999.0,95,0.00,,,0.09,Wunderground v.1.15,2013-10-31 15:13:00,
2013-10-31 10:18:00,64.4,62.9,29.51,ESE,113,2.0,-999.0,95,0.00,,,0.09,Wunderground v.1.15,2013-10-31 15:18:00,
2013-10-31 10:23:00,65.0,63.2,29.51,South,180,2.0,-999.0,94,0.00,,,0.09,Wunderground v.1.15,2013-10-31 15:23:00,
2013-10-31 10:28:00,65.4,63.3,29.50,SSE,158,3.0,-999.0,93,0.00,,,0.09,Wunderground v.1.15,2013-10-31 15:28:00,
2013-10-31 10:33:00,65.8,63.4,29.50,ESE,113,1.0,-999.0,92,0.00,,,0.09,Wunderground v.1.15,2013-10-31 15:33:00,
2013-10-31 10:38:00,66.3,63.9,29.50,South,180,2.0,-999.0,92,0.00,,,0.09,Wunderground v.1.15,2013-10-31 15:38:00,
2013-10-31 10:43:00,66.9,64.2,29.49,SSE,158,3.0,-999.0,91,0.00,,,0.09,Wunderground v.1.15,2013-10-31 15:43:00,
2013-10-31 10:48:00,67.4,63.7,29.49,South,180,3.0,-999.0,88,0.00,,,0.09,Wunderground v.1.15,2013-10-31 15:48:00,
2013-10-31 10:53:00,67.8,63.8,29.49,South,180,1.0,-999.0,87,0.00,,,0.09,Wunderground v.1.15,2013-10-31 15:53:00,
2013-10-31 10:58:00,67.9,63.2,29.47,SSE,158,3.0,-999.0,85,0.00,,,0.09,Wunderground v.1.15,2013-10-31 15:58:00,
2013-10-31 11:03:00,68.4,63.4,29.47,ESE,113,2.0,-999.0,84,0.00,,,0.09,Wunderground v.1.15,2013-10-31 16:03:00,
2013-10-31 11:08:00,68.8,62.7,29.47,SSW,203,4.0,-999.0,81,0.00,,,0.09,Wunderground v.1.15,2013-10-31 16:08:00,
2013-10-31 11:13:00,69.2,62.8,29.47,SSW,203,3.0,-999.0,80,0.00,,,0.09,Wunderground v.1.15,2013-10-31 16:13:00,
2013-10-31 11:18:00,69.6,62.8,29.47,SSE,158,3.0,-999.0,79,0.00,,,0.09,Wunderground v.1.15,2013-10-31 16:18:00,
2013-10-31 11:23:00,70.1,63.3,29.47,SSW,203,2.0,-999.0,79,0.00,,,0.09,Wunderground v.1.15,2013-10-31 16:23:00,
2013-10-31 11:28:00,70.9,63.0,29.45,SW,225,3.0,-999.0,76,0.00,,,0.09,Wunderground v.1.15,2013-10-31 16:28:00,
2013-10-31 11:33:00,71.4,63.4,29.45,SE,135,1.0,-999.0,76,0.00,,,0.09,Wunderground v.1.15,2013-10-31 16:33:00,
2013-10-31 11:38:00,71.5,63.2,29.45,South,180,2.0,-999.0,75,0.00,,,0.09,Wunderground v.1.15,2013-10-31 16:38:00,
2013-10-31 11:43:00,71.7,63.4,29.43,SW,225,1.0,-999.0,75,0.00,,,0.09,Wunderground v.1.15,2013-10-31 16:43:00,
2013-10-31 11:48:00,71.7,63.0,29.43,South,180,3.0,-999.0,74,0.00,,,0.09,Wunderground v.1.15,2013-10-31 16:48:00,
2013-10-31 11:53:00,71.1,63.1,29.43,South,180,2.0,-999.0,76,0.00,,,0.09,Wunderground v.1.15,2013-10-31 16:53:00,
2013-10-31 11:58:00,70.4,62.5,29.43,SSW,203,2.0,-999.0,76,0.00,,,0.09,Wunderground v.1.15,2013-10-31 16:58:00,
2013-10-31 12:03:00,69.9,62.0,29.43,SSW,203,4.0,-999.0,76,0.00,,,0.09,Wunderground v.1.15,2013-10-31 17:03:00,
2013-10-31 12:08:00,69.6,62.1,29.43,SSW,203,2.0,-999.0,77,0.00,,,0.09,Wunderground v.1.15,2013-10-31 17:08:00,
2013-10-31 12:13:00,69.6,62.4,29.42,South,180,1.0,-999.0,78,0.00,,,0.09,Wunderground v.1.15,2013-10-31 17:13:00,
2013-10-31 12:18:00,69.4,62.2,29.42,WSW,248,1.0,-999.0,78,0.00,,,0.09,Wunderground v.1.15,2013-10-31 17:18:00,
2013-10-31 12:23:00,69.6,62.1,29.42,SSW,203,1.0,-999.0,77,0.00,,,0.09,Wunderground v.1.15,2013-10-31 17:23:00,
2013-10-31 12:28:00,70.1,62.2,29.41,SSW,203,2.0,-999.0,76,0.00,,,0.09,Wunderground v.1.15,2013-10-31 17:28:00,
2013-10-31 12:33:00,70.9,62.6,29.41,SSW,203,2.0,-999.0,75,0.00,,,0.09,Wunderground v.1.15,2013-10-31 17:33:00,
2013-10-31 12:38:00,71.8,62.7,29.41,SSW,203,3.0,-999.0,73,0.00,,,0.09,Wunderground v.1.15,2013-10-31 17:38:00,
2013-10-31 12:43:00,72.1,62.2,29.39,SW,225,4.0,-999.0,71,0.00,,,0.09,Wunderground v.1.15,2013-10-31 17:43:00,
2013-10-31 12:48:00,72.3,62.8,29.39,SW,225,1.0,-999.0,72,0.00,,,0.09,Wunderground v.1.15,2013-10-31 17:48:00,
2013-10-31 12:53:00,72.9,61.3,29.39,South,180,2.0,-999.0,67,0.00,,,0.09,Wunderground v.1.15,2013-10-31 17:53:00,
2013-10-31 12:58:00,73.3,59.5,29.40,NNW,338,3.0,-999.0,62,0.00,,,0.09,Wunderground v.1.15,2013-10-31 17:58:00,
2013-10-31 13:03:00,71.6,60.1,29.40,NNW,338,4.0,-999.0,67,0.00,,,0.09,Wunderground v.1.15,2013-10-31 18:03:00,
2013-10-31 13:08:00,69.7,58.7,29.40,North,0,3.0,-999.0,68,0.00,,,0.09,Wunderground v.1.15,2013-10-31 18:08:00,
2013-10-31 13:13:00,68.5,57.5,29.40,NNW,338,3.0,-999.0,68,0.00,,,0.09,Wunderground v.1.15,2013-10-31 18:13:00,
2013-10-31 13:18:00,67.7,56.8,29.40,NNW,338,4.0,-999.0,68,0.00,,,0.09,Wunderground v.1.15,2013-10-31 18:18:00,
2013-10-31 13:23:00,67.0,57.3,29.40,NNW,338,5.0,-999.0,71,0.00,,,0.09,Wunderground v.1.15,2013-10-31 18:23:00,
2013-10-31 13:28:00,66.1,57.9,29.39,NNW,338,5.0,-999.0,75,0.00,,,0.09,Wunderground v.1.15,2013-10-31 18:28:00,
2013-10-31 13:33:00,65.1,58.4,29.39,NNW,338,2.0,-999.0,79,0.00,,,0.09,Wunderground v.1.15,2013-10-31 18:33:00,
2013-10-31 13:38:00,64.2,58.9,29.39,North,0,6.0,-999.0,83,0.02,,,0.09,Wunderground v.1.15,2013-10-31 18:38:00,
2013-10-31 13:43:00,63.3,59.0,29.42,NNW,338,4.0,-999.0,86,0.02,,,0.09,Wunderground v.1.15,2013-10-31 18:43:00,
2013-10-31 13:48:00,62.7,58.8,29.42,NNW,338,2.0,-999.0,87,0.03,,,0.09,Wunderground v.1.15,2013-10-31 18:48:00,
2013-10-31 13:53:00,62.0,58.1,29.42,North,0,1.0,-999.0,87,0.03,,,0.09,Wunderground v.1.15,2013-10-31 18:53:00,
2013-10-31 13:58:00,61.4,57.8,29.44,NNW,338,2.0,-999.0,88,0.03,,,0.09,Wunderground v.1.15,2013-10-31 18:58:00,
2013-10-31 14:03:00,61.0,57.7,29.44,North,0,2.0,-999.0,89,0.03,,,0.09,Wunderground v.1.15,2013-10-31 19:03:00,
2013-10-31 14:08:00,60.8,57.8,29.44,North,0,3.0,-999.0,90,0.03,,,0.09,Wunderground v.1.15,2013-10-31 19:08:00,
2013-10-31 14:13:00,60.9,58.3,29.44,NNW,338,2.0,-999.0,91,0.03,,,0.09,Wunderground v.1.15,2013-10-31 19:13:00,
2013-10-31 14:18:00,61.3,58.3,29.44,North,0,2.0,-999.0,90,0.03,,,0.09,Wunderground v.1.15,2013-10-31 19:18:00,
2013-10-31 14:23:00,61.3,58.3,29.44,NNW,338,4.0,-999.0,90,0.03,,,0.09,Wunderground v.1.15,2013-10-31 19:23:00,
2013-10-31 14:28:00,61.5,58.5,29.45,NNW,338,2.0,-999.0,90,0.03,,,0.09,Wunderground v.1.15,2013-10-31 19:28:00,
2013-10-31 14:33:00,61.4,58.4,29.45,NNW,338,3.0,-999.0,90,0.03,,,0.09,Wunderground v.1.15,2013-10-31 19:33:00,
2013-10-31 14:38:00,61.2,57.9,29.45,NNW,338,4.0,-999.0,89,0.01,,,0.09,Wunderground v.1.15,2013-10-31 19:38:00,
2013-10-31 14:43:00,61.0,57.7,29.46,NNW,338,4.0,-999.0,89,0.01,,,0.09,Wunderground v.1.15,2013-10-31 19:43:00,
2013-10-31 14:48:00,61.2,57.9,29.46,NNW,338,2.0,-999.0,89,0.00,,,0.09,Wunderground v.1.15,2013-10-31 19:48:00,
2013-10-31 14:53:00,61.3,57.7,29.46,NNW,338,3.0,-999.0,88,0.00,,,0.09,Wunderground v.1.15,2013-10-31 19:53:00,
2013-10-31 14:58:00,61.5,57.3,29.46,NNW,338,3.0,-999.0,86,0.00,,,0.09,Wunderground v.1.15,2013-10-31 19:58:00,
2013-10-31 15:03:00,61.5,56.6,29.46,NNW,338,2.0,-999.0,84,0.00,,,0.09,Wunderground v.1.15,2013-10-31 20:03:00,
2013-10-31 15:08:00,61.1,56.2,29.46,NNW,338,3.0,-999.0,84,0.00,,,0.09,Wunderground v.1.15,2013-10-31 20:08:00,
2013-10-31 15:13:00,60.7,55.5,29.48,NNW,338,3.0,-999.0,83,0.00,,,0.09,Wunderground v.1.15,2013-10-31 20:13:00,
2013-10-31 15:18:00,60.3,55.4,29.48,NNW,338,3.0,-999.0,84,0.00,,,0.09,Wunderground v.1.15,2013-10-31 20:18:00,
2013-10-31 15:23:00,60.0,55.5,29.48,NNW,338,1.0,-999.0,85,0.00,,,0.09,Wunderground v.1.15,2013-10-31 20:23:00,
2013-10-31 15:28:00,59.9,55.7,29.50,North,0,1.0,-999.0,86,0.00,,,0.09,Wunderground v.1.15,2013-10-31 20:28:00,
2013-10-31 15:33:00,59.8,55.6,29.50,SW,225,0.0,-999.0,86,0.00,,,0.09,Wunderground v.1.15,2013-10-31 20:33:00,
2013-10-31 15:38:00,59.6,55.4,29.50,NNW,338,3.0,-999.0,86,0.01,,,0.09,Wunderground v.1.15,2013-10-31 20:38:00,
2013-10-31 15:43:00,58.6,54.7,29.53,NNW,338,5.0,-999.0,87,0.02,,,0.09,Wunderground v.1.15,2013-10-31 20:43:00,
2013-10-31 15:48:00,57.7,54.2,29.53,NNW,338,4.0,-999.0,88,0.02,,,0.09,Wunderground v.1.15,2013-10-31 20:48:00,
2013-10-31 15:53:00,57.0,53.8,29.53,NNW,338,4.0,-999.0,89,0.02,,,0.09,Wunderground v.1.15,2013-10-31 20:53:00,
2013-10-31 15:58:00,56.7,53.8,29.54,NNW,338,5.0,-999.0,90,0.02,,,0.09,Wunderground v.1.15,2013-10-31 20:58:00,
2013-10-31 16:03:00,56.5,53.9,29.54,NNW,338,3.0,-999.0,91,0.02,,,0.09,Wunderground v.1.15,2013-10-31 21:03:00,
2013-10-31 16:08:00,56.4,53.8,29.54,NNW,338,3.0,-999.0,91,0.02,,,0.09,Wunderground v.1.15,2013-10-31 21:08:00,
2013-10-31 16:13:00,56.0,53.4,29.56,NNW,338,4.0,-999.0,91,0.02,,,0.09,Wunderground v.1.15,2013-10-31 21:13:00,
2013-10-31 16:18:00,55.6,53.0,29.56,NNW,338,5.0,-999.0,91,0.02,,,0.09,Wunderground v.1.15,2013-10-31 21:18:00,
2013-10-31 16:23:00,55.3,52.7,29.56,NNW,338,4.0,-999.0,91,0.02,,,0.09,Wunderground v.1.15,2013-10-31 21:23:00,
2013-10-31 16:28:00,55.0,52.4,29.58,North,0,3.0,-999.0,91,0.02,,,0.09,Wunderground v.1.15,2013-10-31 21:28:00,
2013-10-31 16:33:00,54.6,51.7,29.58,NNW,338,5.0,-999.0,90,0.02,,,0.09,Wunderground v.1.15,2013-10-31 21:33:00,
2013-10-31 16:38:00,54.3,51.4,29.58,NNW,338,5.0,-999.0,90,0.01,,,0.09,Wunderground v.1.15,2013-10-31 21:38:00,
2013-10-31 16:43:00,54.2,51.3,29.59,NNW,338,3.0,-999.0,90,0.00,,,0.09,Wunderground v.1.15,2013-10-31 21:43:00,
2013-10-31 16:48:00,54.1,51.2,29.59,NNW,338,2.0,-999.0,90,0.00,,,0.09,Wunderground v.1.15,2013-10-31 21:48:00,
2013-10-31 16:53:00,54.1,51.2,29.59,NNW,338,3.0,-999.0,90,0.00,,,0.09,Wunderground v.1.15,2013-10-31 21:53:00,
2013-10-31 16:58:00,54.0,51.1,29.60,NNW,338,2.0,-999.0,90,0.00,,,0.09,Wunderground v.1.15,2013-10-31 21:58:00,
2013-10-31 17:03:00,53.9,51.0,29.60,NNW,338,1.0,-999.0,90,0.00,,,0.09,Wunderground v.1.15,2013-10-31 22:03:00,
2013-10-31 17:08:00,53.9,51.0,29.60,NNW,338,2.0,-999.0,90,0.00,,,0.09,Wunderground v.1.15,2013-10-31 22:08:00,
2013-10-31 17:13:00,53.9,51.0,29.60,NNW,338,1.0,-999.0,90,0.00,,,0.09,Wunderground v.1.15,2013-10-31 22:13:00,
2013-10-31 17:18:00,53.8,51.2,29.60,NNW,338,1.0,-999.0,91,0.00,,,0.09,Wunderground v.1.15,2013-10-31 22:18:00,
2013-10-31 17:23:00,53.8,51.2,29.60,NNW,338,1.0,-999.0,91,0.00,,,0.09,Wunderground v.1.15,2013-10-31 22:23:00,
2013-10-31 17:28:00,53.8,51.2,29.62,NNW,338,1.0,-999.0,91,0.00,,,0.09,Wunderground v.1.15,2013-10-31 22:28:00,
2013-10-31 17:33:00,53.8,51.2,29.62,NNW,338,2.0,-999.0,91,0.00,,,0.09,Wunderground v.1.15,2013-10-31 22:33:00,
2013-10-31 17:38:00,53.6,51.0,29.62,North,0,1.0,-999.0,91,0.00,,,0.09,Wunderground v.1.15,2013-10-31 22:38:00,
2013-10-31 17:43:00,53.5,50.6,29.64,NNW,338,2.0,-999.0,90,0.00,,,0.09,Wunderground v.1.15,2013-10-31 22:43:00,
2013-10-31 17:48:00,53.1,50.2,29.64,NNW,338,3.0,-999.0,90,0.00,,,0.09,Wunderground v.1.15,2013-10-31 22:48:00,
2013-10-31 17:53:00,52.7,49.5,29.64,NNW,338,2.0,-999.0,89,0.00,,,0.09,Wunderground v.1.15,2013-10-31 22:53:00,
2013-10-31 17:58:00,52.4,49.3,29.64,NNE,23,2.0,-999.0,89,0.00,,,0.09,Wunderground v.1.15,2013-10-31 22:58:00,
2013-10-31 18:03:00,52.1,49.0,29.64,NNW,338,2.0,-999.0,89,0.00,,,0.09,Wunderground v.1.15,2013-10-31 23:03:00,
2013-10-31 18:08:00,51.8,48.7,29.64,NNW,338,0.0,-999.0,89,0.00,,,0.09,Wunderground v.1.15,2013-10-31 23:08:00,
2013-10-31 18:13:00,51.6,48.5,29.65,NNW,338,0.0,-999.0,89,0.00,,,0.09,Wunderground v.1.15,2013-10-31 23:13:00,
2013-10-31 18:18:00,51.4,48.6,29.65,NNW,338,1.0,-999.0,90,0.00,,,0.09,Wunderground v.1.15,2013-10-31 23:18:00,
2013-10-31 18:23:00,51.5,48.7,29.65,NNW,338,0.0,-999.0,90,0.00,,,0.09,Wunderground v.1.15,2013-10-31 23:23:00,
2013-10-31 18:28:00,51.6,48.8,29.66,NNW,338,0.0,-999.0,90,0.00,,,0.09,Wunderground v.1.15,2013-10-31 23:28:00,
2013-10-31 18:33:00,51.6,48.8,29.66,NW,315,0.0,-999.0,90,0.00,,,0.09,Wunderground v.1.15,2013-10-31 23:33:00,
2013-10-31 18:38:00,51.7,49.2,29.66,WSW,248,0.0,-999.0,91,0.00,,,0.09,Wunderground v.1.15,2013-10-31 23:38:00,
2013-10-31 18:43:00,51.6,48.8,29.67,NW,315,0.0,-999.0,90,0.00,,,0.09,Wunderground v.1.15,2013-10-31 23:43:00,
2013-10-31 18:48:00,51.5,48.7,29.67,N/A,-737280,0.0,-999.0,90,0.00,,,0.09,Wunderground v.1.15,2013-10-31 23:48:00,
2013-10-31 18:53:00,51.3,48.5,29.67,N/A,-737280,0.0,-999.0,90,0.00,,,0.09,Wunderground v.1.15,2013-10-31 23:53:00,
2013-10-31 18:58:00,51.2,48.4,29.67,N/A,-737280,0.0,-999.0,90,0.00,,,0.09,Wunderground v.1.15,2013-10-31 23:58:00,
2013-10-31 19:03:00,51.0,48.5,29.67,N/A,-737280,0.0,-999.0,91,0.00,,,0.09,Wunderground v.1.15,2013-11-01 00:03:00,
2013-10-31 19:08:00,50.7,48.2,29.67,N/A,-737280,0.0,-999.0,91,0.00,,,0.09,Wunderground v.1.15,2013-11-01 00:08:00,
2013-10-31 19:13:00,50.4,47.9,29.67,N/A,-737280,0.0,-999.0,91,0.00,,,0.09,Wunderground v.1.15,2013-11-01 00:13:00,
2013-10-31 19:18:00,50.2,47.7,29.67,N/A,-737280,0.0,-999.0,91,0.00,,,0.09,Wunderground v.1.15,2013-11-01 00:18:00,
2013-10-31 19:23:00,50.0,47.5,29.67,N/A,-737280,0.0,-999.0,91,0.00,,,0.09,Wunderground v.1.15,2013-11-01 00:23:00,
2013-10-31 19:28:00,49.7,47.2,29.67,N/A,-737280,0.0,-999.0,91,0.00,,,0.09,Wunderground v.1.15,2013-11-01 00:28:00,
2013-10-31 19:33:00,49.5,47.0,29.67,N/A,-737280,0.0,-999.0,91,0.00,,,0.09,Wunderground v.1.15,2013-11-01 00:33:00,
2013-10-31 19:38:00,49.3,46.8,29.67,N/A,-737280,0.0,-999.0,91,0.00,,,0.09,Wunderground v.1.15,2013-11-01 00:38:00,
2013-10-31 19:43:00,49.0,46.5,29.67,N/A,-737280,0.0,-999.0,91,0.00,,,0.09,Wunderground v.1.15,2013-11-01 00:43:00,
2013-10-31 19:48:00,48.8,46.3,29.67,N/A,-737280,0.0,-999.0,91,0.00,,,0.09,Wunderground v.1.15,2013-11-01 00:48:00,
2013-10-31 19:53:00,48.6,46.1,29.67,N/A,-737280,0.0,-999.0,91,0.00,,,0.09,Wunderground v.1.15,2013-11-01 00:53:00,
2013-10-31 19:58:00,48.3,46.1,29.67,N/A,-737280,0.0,-999.0,92,0.00,,,0.09,Wunderground v.1.15,2013-11-01 00:58:00,
2013-10-31 20:03:00,48.1,45.9,29.67,N/A,-737280,0.0,-999.0,92,0.00,,,0.09,Wunderground v.1.15,2013-11-01 01:03:00,
2013-10-31 20:08:00,47.9,45.7,29.67,N/A,-737280,0.0,-999.0,92,0.00,,,0.09,Wunderground v.1.15,2013-11-01 01:08:00,
2013-10-31 20:13:00,47.7,45.5,29.67,N/A,-737280,0.0,-999.0,92,0.00,,,0.09,Wunderground v.1.15,2013-11-01 01:13:00,
2013-10-31 20:18:00,47.6,45.4,29.67,N/A,-737280,0.0,-999.0,92,0.00,,,0.09,Wunderground v.1.15,2013-11-01 01:18:00,
2013-10-31 20:23:00,47.5,45.3,29.67,N/A,-737280,0.0,-999.0,92,0.00,,,0.09,Wunderground v.1.15,2013-11-01 01:23:00,
2013-10-31 20:28:00,47.4,45.5,29.67,N/A,-737280,0.0,-999.0,93,0.00,,,0.09,Wunderground v.1.15,2013-11-01 01:28:00,
2013-10-31 20:33:00,47.3,45.4,29.67,N/A,-737280,0.0,-999.0,93,0.00,,,0.09,Wunderground v.1.15,2013-11-01 01:33:00,
2013-10-31 20:38:00,47.4,45.5,29.67,N/A,-737280,0.0,-999.0,93,0.00,,,0.09,Wunderground v.1.15,2013-11-01 01:38:00,
2013-10-31 20:43:00,47.6,46.0,29.68,N/A,-737280,0.0,-999.0,94,0.00,,,0.09,Wunderground v.1.15,2013-11-01 01:43:00,
2013-10-31 20:48:00,47.7,46.1,29.68,N/A,-737280,0.0,-999.0,94,0.00,,,0.09,Wunderground v.1.15,2013-11-01 01:48:00,
2013-10-31 20:53:00,47.6,46.0,29.68,N/A,-737280,0.0,-999.0,94,0.00,,,0.09,Wunderground v.1.15,2013-11-01 01:53:00,
2013-10-31 20:58:00,47.6,46.0,29.69,N/A,-737280,0.0,-999.0,94,0.00,,,0.09,Wunderground v.1.15,2013-11-01 01:58:00,
2013-10-31 21:03:00,47.5,45.9,29.69,N/A,-737280,0.0,-999.0,94,0.00,,,0.09,Wunderground v.1.15,2013-11-01 02:03:00,
2013-10-31 21:08:00,47.4,45.8,29.69,N/A,-737280,0.0,-999.0,94,0.00,,,0.09,Wunderground v.1.15,2013-11-01 02:08:00,
2013-10-31 21:13:00,47.2,45.6,29.69,N/A,-737280,0.0,-999.0,94,0.00,,,0.09,Wunderground v.1.15,2013-11-01 02:13:00,
2013-10-31 21:18:00,47.1,45.5,29.69,South,180,0.0,-999.0,94,0.00,,,0.09,Wunderground v.1.15,2013-11-01 02:18:00,
2013-10-31 21:23:00,47.1,45.7,29.69,South,180,0.0,-999.0,95,0.00,,,0.09,Wunderground v.1.15,2013-11-01 02:23:00,
2013-10-31 21:28:00,47.3,45.9,29.70,South,180,0.0,-999.0,95,0.00,,,0.09,Wunderground v.1.15,2013-11-01 02:28:00,
2013-10-31 21:33:00,47.7,46.3,29.70,SE,135,0.0,-999.0,95,0.00,,,0.09,Wunderground v.1.15,2013-11-01 02:33:00,
2013-10-31 21:38:00,47.7,46.3,29.70,N/A,-737280,0.0,-999.0,95,0.00,,,0.09,Wunderground v.1.15,2013-11-01 02:38:00,
2013-10-31 21:43:00,47.7,46.3,29.69,N/A,-737280,0.0,-999.0,95,0.00,,,0.09,Wunderground v.1.15,2013-11-01 02:43:00,
2013-10-31 21:48:00,47.7,46.3,29.69,N/A,-737280,0.0,-999.0,95,0.00,,,0.09,Wunderground v.1.15,2013-11-01 02:48:00,
2013-10-31 21:53:00,47.6,46.2,29.69,N/A,-737280,0.0,-999.0,95,0.00,,,0.09,Wunderground v.1.15,2013-11-01 02:53:00,
2013-10-31 21:58:00,47.5,46.1,29.70,N/A,-737280,0.0,-999.0,95,0.00,,,0.09,Wunderground v.1.15,2013-11-01 02:58:00,
2013-10-31 22:03:00,47.3,45.9,29.70,N/A,-737280,0.0,-999.0,95,0.00,,,0.09,Wunderground v.1.15,2013-11-01 03:03:00,
2013-10-31 22:08:00,47.1,45.7,29.70,N/A,-737280,0.0,-999.0,95,0.00,,,0.09,Wunderground v.1.15,2013-11-01 03:08:00,
2013-10-31 22:13:00,47.0,45.6,29.70,N/A,-737280,0.0,-999.0,95,0.00,,,0.09,Wunderground v.1.15,2013-11-01 03:13:00,
2013-10-31 22:18:00,47.1,45.7,29.70,N/A,-737280,0.0,-999.0,95,0.00,,,0.09,Wunderground v.1.15,2013-11-01 03:18:00,
2013-10-31 22:23:00,47.2,45.8,29.70,SE,135,0.0,-999.0,95,0.00,,,0.09,Wunderground v.1.15,2013-11-01 03:23:00,
2013-10-31 22:28:00,47.3,45.9,29.70,N/A,-737280,0.0,-999.0,95,0.00,,,0.09,Wunderground v.1.15,2013-11-01 03:28:00,
2013-10-31 22:33:00,47.4,46.3,29.70,SE,135,0.0,-999.0,96,0.00,,,0.09,Wunderground v.1.15,2013-11-01 03:33:00,
2013-10-31 22:38:00,47.6,46.2,29.70,N/A,-737280,0.0,-999.0,95,0.00,,,0.09,Wunderground v.1.15,2013-11-01 03:38:00,
2013-10-31 22:43:00,47.6,46.2,29.69,N/A,-737280,0.0,-999.0,95,0.00,,,0.09,Wunderground v.1.15,2013-11-01 03:43:00,
2013-10-31 22:48:00,47.4,46.0,29.69,N/A,-737280,0.0,-999.0,95,0.00,,,0.09,Wunderground v.1.15,2013-11-01 03:48:00,
2013-10-31 22:53:00,47.3,45.9,29.69,N/A,-737280,0.0,-999.0,95,0.00,,,0.09,Wunderground v.1.15,2013-11-01 03:53:00,
2013-10-31 22:58:00,47.1,45.7,29.69,N/A,-737280,0.0,-999.0,95,0.00,,,0.09,Wunderground v.1.15,2013-11-01 03:58:00,
2013-10-31 23:03:00,47.0,45.6,29.69,N/A,-737280,0.0,-999.0,95,0.00,,,0.09,Wunderground v.1.15,2013-11-01 04:03:00,
2013-10-31 23:08:00,46.7,45.3,29.69,N/A,-737280,0.0,-999.0,95,0.00,,,0.09,Wunderground v.1.15,2013-11-01 04:08:00,
2013-10-31 23:13:00,46.8,45.4,29.70,SE,135,0.0,-999.0,95,0.00,,,0.09,Wunderground v.1.15,2013-11-01 04:13:00,
2013-10-31 23:18:00,46.8,45.7,29.70,N/A,-737280,0.0,-999.0,96,0.00,,,0.09,Wunderground v.1.15,2013-11-01 04:18:00,
2013-10-31 23:23:00,46.7,45.3,29.70,N/A,-737280,0.0,-999.0,95,0.00,,,0.09,Wunderground v.1.15,2013-11-01 04:23:00,
2013-10-31 23:28:00,46.7,45.6,29.70,N/A,-737280,0.0,-999.0,96,0.00,,,0.09,Wunderground v.1.15,2013-11-01 04:28:00,
2013-10-31 23:33:00,46.7,45.6,29.70,N/A,-737280,0.0,-999.0,96,0.00,,,0.09,Wunderground v.1.15,2013-11-01 04:33:00,
2013-10-31 23:38:00,46.7,45.6,29.70,N/A,-737280,0.0,-999.0,96,0.00,,,0.09,Wunderground v.1.15,2013-11-01 04:38:00,
2013-10-31 23:43:00,46.7,45.6,29.71,N/A,-737280,0.0,-999.0,96,0.00,,,0.09,Wunderground v.1.15,2013-11-01 04:43:00,
2013-10-31 23:48:00,46.5,45.4,29.71,SE,135,0.0,-999.0,96,0.00,,,0.09,Wunderground v.1.15,2013-11-01 04:48:00,
2013-10-31 23:53:00,46.5,45.4,29.71,N/A,-737280,0.0,-999.0,96,0.00,,,0.09,Wunderground v.1.15,2013-11-01 04:53:00,
2013-10-31 23:58:00,46.5,45.4,29.70,N/A,-737280,0.0,-999.0,96,0.00,,,0.09,Wunderground v.1.15,2013-11-01 04:58:00,